Tracking 18980 objects as of 21-Feb-2018
HD Live streaming from Space Station
objects crossing your sky now

FENGYUN 1C DEB

Track FENGYUN 1C DEB now!
10-day predictions


NORAD ID: 30562
Int'l Code: 1999-025ALC
Perigee: 815.7 km
Apogee: 917.7 km
Inclination: 99.0 °
Period: 102.1 minutes
Semi major axis: 7237 km
RCS: 0.043 m2 (small)
Launch date: May 10, 1999
Source: People's Republic of China (PRC)
Launch site: Taiyaun Space Center, China (TSC)

Note: This is SATELLITE DEBRIS
aabbcc
Your satellite tracking list
Your tracking list is empty




NASA's NSSDC Master Catalog

Two Line Element Set (TLE):
1 30562U 99025ALC 18051.84256751 +.00000376 +00000-0 +23278-3 0  9995
2 30562 098.9712 107.2854 0070486 079.7087 341.3060 14.09954389567090
Source of the keplerian elements: AFSPC